This is the latest recevied weather packets stored in our database for station/object K8GLX. If no packets are shown the sender has not sent any weather packets the latest 1 day(s).
| Time | Temp. | Humidity | Pressure | Rain* | Wind** | Luminosity | Snow |
|---|---|---|---|---|---|---|---|
| 1777975934 | 19.44° C | 60% | 1003.3 hPa | 0 mm | 2.68 m/s, 285° | 0 W/m² | - |
| 1777975630 | 19.44° C | 60% | 1003.2 hPa | 0 mm | 2.24 m/s, 242° | 0 W/m² | - |
| 1777975462 | 19.44° C | 59% | 1003.3 hPa | 0 mm | 3.13 m/s, 213° | 0 W/m² | - |
| 1777975029 | 19.44° C | 59% | 1003 hPa | 0 mm | 4.47 m/s, 269° | 0 W/m² | - |
| 1777974735 | 19.44° C | 58% | 1002.9 hPa | 0 mm | 3.58 m/s, 232° | 0 W/m² | - |
| 1777974428 | 19.44° C | 59% | 1002.8 hPa | 0 mm | 2.24 m/s, 212° | 0 W/m² | - |
| 1777974262 | 19.44° C | 59% | 1002.7 hPa | 0 mm | 3.13 m/s, 260° | 0 W/m² | - |
| 1777973829 | 19.44° C | 58% | 1002.7 hPa | 0 mm | 3.13 m/s, 201° | 0 W/m² | - |
| 1777973662 | 19.44° C | 58% | 1002.7 hPa | 0 mm | 2.24 m/s, 221° | 0 W/m² | - |
| 1777973228 | 19.44° C | 58% | 1002.3 hPa | 0 mm | 1.79 m/s, 227° | 0 W/m² | - |
| 1777972934 | 20° C | 57% | 1002.5 hPa | 0 mm | 1.79 m/s, 252° | 0 W/m² | - |
| 1777972629 | 20° C | 58% | 1002.4 hPa | 0 mm | 3.13 m/s, 238° | 0 W/m² | - |
| 1777972394 | 20° C | 57% | 1002.3 hPa | 0 mm | 1.34 m/s, 212° | 0 W/m² | - |
| 1777972110 | 20° C | 57% | 1002.6 hPa | 0 mm | 3.58 m/s, 241° | 0 W/m² | - |
| 1777971829 | 20° C | 57% | 1002.4 hPa | 0 mm | 1.34 m/s, 221° | 0 W/m² | - |
| 1777971539 | 20° C | 57% | 1002.6 hPa | 0 mm | 2.68 m/s, 223° | 0 W/m² | - |
| 1777971262 | 20° C | 58% | 1002.6 hPa | 0 mm | 4.02 m/s, 273° | 0 W/m² | - |
| 1777970828 | 20° C | 58% | 1002.4 hPa | 0 mm | 2.24 m/s, 230° | 0 W/m² | - |
| 1777970535 | 20° C | 58% | 1002.4 hPa | 0 mm | 2.68 m/s, 243° | 0 W/m² | - |
| 1777970229 | 20° C | 58% | 1002.4 hPa | 0 mm | 1.34 m/s, 214° | 0 W/m² | - |
| 1777969934 | 20° C | 58% | 1002.4 hPa | 0 mm | 4.47 m/s, 271° | 0 W/m² | - |
| 1777969629 | 20° C | 58% | 1002.5 hPa | 0 mm | 3.13 m/s, 236° | 0 W/m² | - |
| 1777969334 | 20° C | 59% | 1002.3 hPa | 0 mm | 2.24 m/s, 260° | 0 W/m² | - |
| 1777969029 | 20° C | 59% | 1002.5 hPa | 0 mm | 0.89 m/s, 291° | 0 W/m² | - |
| 1777968734 | 19.44° C | 59% | 1002.4 hPa | 0 mm | 4.02 m/s, 211° | 0 W/m² | - |
* Rain latest hour (hover to see other rain measurements)
** Current wind speed in m/s (hover to see current wind gust speed)